Year,Month,Day,Hour,Minute,Value (Times are PST for temperature in C)
2020,04,08,00,00,2.90
2020,04,08,00,01,2.80
2020,04,08,00,02,2.80
2020,04,08,00,03,2.80
2020,04,08,00,04,2.80
2020,04,08,00,05,2.80
2020,04,08,00,06,2.70
2020,04,08,00,07,2.70
2020,04,08,00,08,2.70
2020,04,08,00,09,2.70
2020,04,08,00,10,2.70
2020,04,08,00,11,2.70
2020,04,08,00,12,2.60
2020,04,08,00,13,2.60
2020,04,08,00,14,2.60
2020,04,08,00,15,2.60
2020,04,08,00,16,2.60
2020,04,08,00,17,2.60
2020,04,08,00,18,2.50
2020,04,08,00,19,2.50
2020,04,08,00,20,2.50
2020,04,08,00,21,2.50
2020,04,08,00,22,2.50
2020,04,08,00,23,2.50
2020,04,08,00,24,2.40
2020,04,08,00,25,2.40
2020,04,08,00,26,2.40
2020,04,08,00,27,2.40
2020,04,08,00,28,2.40
2020,04,08,00,29,2.30
2020,04,08,00,30,2.30
2020,04,08,00,31,2.30
2020,04,08,00,32,2.30
2020,04,08,00,33,2.30
2020,04,08,00,34,2.30
2020,04,08,00,35,2.30
2020,04,08,00,36,2.30
2020,04,08,00,37,2.30
2020,04,08,00,38,2.20
2020,04,08,00,39,2.20
2020,04,08,00,40,2.20
2020,04,08,00,41,2.20
2020,04,08,00,42,2.20
2020,04,08,00,43,2.20
2020,04,08,00,44,2.20
2020,04,08,00,45,2.20
2020,04,08,00,46,2.20
2020,04,08,00,47,2.20
2020,04,08,00,48,2.20
2020,04,08,00,49,2.20
2020,04,08,00,50,2.30
2020,04,08,00,51,2.30
2020,04,08,00,52,2.30
2020,04,08,00,53,2.30
2020,04,08,00,54,2.30
2020,04,08,00,55,2.30
2020,04,08,00,56,2.30
2020,04,08,00,57,2.30
2020,04,08,00,58,2.30
2020,04,08,00,59,2.30
2020,04,08,01,00,2.30
2020,04,08,01,01,2.30
2020,04,08,01,02,2.30
2020,04,08,01,03,2.30
2020,04,08,01,04,2.30
2020,04,08,01,05,2.30
2020,04,08,01,06,2.30
2020,04,08,01,07,2.30
2020,04,08,01,08,2.30
2020,04,08,01,09,2.20
2020,04,08,01,10,2.20
2020,04,08,01,11,2.20
2020,04,08,01,12,2.10
2020,04,08,01,13,2.10
2020,04,08,01,14,2.10
2020,04,08,01,15,2.00
2020,04,08,01,16,2.00
2020,04,08,01,17,2.00
2020,04,08,01,18,1.90
2020,04,08,01,19,1.90
2020,04,08,01,20,1.90
2020,04,08,01,21,1.80
2020,04,08,01,22,1.80
2020,04,08,01,23,1.80
2020,04,08,01,24,1.80
2020,04,08,01,25,1.80
2020,04,08,01,26,1.70
2020,04,08,01,27,1.70
2020,04,08,01,28,1.70
2020,04,08,01,29,1.70
2020,04,08,01,30,1.70
2020,04,08,01,31,1.60
2020,04,08,01,32,1.60
2020,04,08,01,33,1.60
2020,04,08,01,34,1.60
2020,04,08,01,35,1.60
2020,04,08,01,36,1.50
2020,04,08,01,37,1.50
2020,04,08,01,38,1.50
2020,04,08,01,39,1.40
2020,04,08,01,40,1.40
2020,04,08,01,41,1.40
2020,04,08,01,42,1.40
2020,04,08,01,43,1.40
2020,04,08,01,44,1.30
2020,04,08,01,45,1.30
2020,04,08,01,46,1.30
2020,04,08,01,47,1.30
2020,04,08,01,48,1.30
2020,04,08,01,49,1.30
2020,04,08,01,50,1.20
2020,04,08,01,51,1.20
2020,04,08,01,52,1.20
2020,04,08,01,53,1.20
2020,04,08,01,54,1.20
2020,04,08,01,55,1.20
2020,04,08,01,56,1.20
2020,04,08,01,57,1.20
2020,04,08,01,58,1.10
2020,04,08,01,59,1.10
2020,04,08,02,00,1.10
2020,04,08,02,01,1.10
2020,04,08,02,02,1.10
2020,04,08,02,03,1.10
2020,04,08,02,04,1.10
2020,04,08,02,05,1.00
2020,04,08,02,06,1.00
2020,04,08,02,07,1.00
2020,04,08,02,08,1.00
2020,04,08,02,09,1.00
2020,04,08,02,10,1.00
2020,04,08,02,11,1.00
2020,04,08,02,12,1.00
2020,04,08,02,13,1.00
2020,04,08,02,14,1.00
2020,04,08,02,15,1.00
2020,04,08,02,16,1.00
2020,04,08,02,17,1.00
2020,04,08,02,18,0.90
2020,04,08,02,19,0.80
2020,04,08,02,20,0.80
2020,04,08,02,21,0.80
2020,04,08,02,22,0.70
2020,04,08,02,23,0.70
2020,04,08,02,24,0.70
2020,04,08,02,25,0.70
2020,04,08,02,26,0.70
2020,04,08,02,27,0.70
2020,04,08,02,28,0.70
2020,04,08,02,29,0.70
2020,04,08,02,30,0.70
2020,04,08,02,31,0.60
2020,04,08,02,32,0.60
2020,04,08,02,33,0.60
2020,04,08,02,34,0.60
2020,04,08,02,35,0.60
2020,04,08,02,36,0.60
2020,04,08,02,37,0.60
2020,04,08,02,38,0.50
2020,04,08,02,39,0.50
2020,04,08,02,40,0.50
2020,04,08,02,41,0.50
2020,04,08,02,42,0.40
2020,04,08,02,43,0.40
2020,04,08,02,44,0.40
2020,04,08,02,45,0.40
2020,04,08,02,46,0.40
2020,04,08,02,47,0.40
2020,04,08,02,48,0.40
2020,04,08,02,49,0.30
2020,04,08,02,50,0.30
2020,04,08,02,51,0.30
2020,04,08,02,52,0.30
2020,04,08,02,53,0.30
2020,04,08,02,54,0.30
2020,04,08,02,55,0.20
2020,04,08,02,56,0.20
2020,04,08,02,57,0.20
2020,04,08,02,58,0.20
2020,04,08,02,59,0.20
2020,04,08,03,00,0.20
2020,04,08,03,01,0.20
2020,04,08,03,02,0.10
2020,04,08,03,03,0.10
2020,04,08,03,04,0.10
2020,04,08,03,05,0.10
2020,04,08,03,06,0.10
2020,04,08,03,07,0.10
2020,04,08,03,08,0.10
2020,04,08,03,09,0.10
2020,04,08,03,10,0.10
2020,04,08,03,11,0.10
2020,04,08,03,12,0.00
2020,04,08,03,13,0.00
2020,04,08,03,14,0.00
2020,04,08,03,15,0.00
2020,04,08,03,16,0.00
2020,04,08,03,17,0.00
2020,04,08,03,18,-0.10
2020,04,08,03,19,-0.10
2020,04,08,03,20,-0.10
2020,04,08,03,21,-0.10
2020,04,08,03,22,-0.10
2020,04,08,03,23,-0.10
2020,04,08,03,24,-0.10
2020,04,08,03,25,-0.20
2020,04,08,03,26,-0.20
2020,04,08,03,27,-0.20
2020,04,08,03,28,-0.20
2020,04,08,03,29,-0.20
2020,04,08,03,30,-0.20
2020,04,08,03,31,-0.20
2020,04,08,03,32,-0.20
2020,04,08,03,33,-0.20
2020,04,08,03,34,-0.20
2020,04,08,03,35,-0.20
2020,04,08,03,36,-0.30
2020,04,08,03,37,-0.30
2020,04,08,03,38,-0.30
2020,04,08,03,39,-0.30
2020,04,08,03,40,-0.30
2020,04,08,03,41,-0.30
2020,04,08,03,42,-0.30
2020,04,08,03,43,-0.30
2020,04,08,03,44,-0.30
2020,04,08,03,45,-0.30
2020,04,08,03,46,-0.30
2020,04,08,03,47,-0.30
2020,04,08,03,48,-0.40
2020,04,08,03,49,-0.40
2020,04,08,03,50,-0.40
2020,04,08,03,51,-0.40
2020,04,08,03,52,-0.40
2020,04,08,03,53,-0.40
2020,04,08,03,54,-0.40
2020,04,08,03,55,-0.40
2020,04,08,03,56,-0.40
2020,04,08,03,57,-0.50
2020,04,08,03,58,-0.50
2020,04,08,03,59,-0.50
2020,04,08,04,00,-0.50
2020,04,08,04,01,-0.60
2020,04,08,04,02,-0.60
2020,04,08,04,03,-0.60
2020,04,08,04,04,-0.60
2020,04,08,04,05,-0.60
2020,04,08,04,06,-0.60
2020,04,08,04,07,-0.60
2020,04,08,04,08,-0.60
2020,04,08,04,09,-0.70
2020,04,08,04,10,-0.70
2020,04,08,04,11,-0.70
2020,04,08,04,12,-0.70
2020,04,08,04,13,-0.70
2020,04,08,04,14,-0.70
2020,04,08,04,15,-0.70
2020,04,08,04,16,-0.70
2020,04,08,04,17,-0.70
2020,04,08,04,18,-0.70
2020,04,08,04,19,-0.70
2020,04,08,04,20,-0.70
2020,04,08,04,21,-0.70
2020,04,08,04,22,-0.70
2020,04,08,04,23,-0.70
2020,04,08,04,24,-0.70
2020,04,08,04,25,-0.70
2020,04,08,04,26,-0.80
2020,04,08,04,27,-0.80
2020,04,08,04,28,-0.80
2020,04,08,04,29,-0.80
2020,04,08,04,30,-0.80
2020,04,08,04,31,-0.80
2020,04,08,04,32,-0.80
2020,04,08,04,33,-0.80
2020,04,08,04,34,-0.80
2020,04,08,04,35,-0.80
2020,04,08,04,36,-0.90
2020,04,08,04,37,-0.90
2020,04,08,04,38,-0.90
2020,04,08,04,39,-0.90
2020,04,08,04,40,-0.90
2020,04,08,04,41,-0.90
2020,04,08,04,42,-0.90
2020,04,08,04,43,-0.90
2020,04,08,04,44,-0.90
2020,04,08,04,45,-0.90
2020,04,08,04,46,-0.90
2020,04,08,04,47,-0.90
2020,04,08,04,48,-0.90
2020,04,08,04,49,-0.90
2020,04,08,04,50,-0.90
2020,04,08,04,51,-0.90
2020,04,08,04,52,-0.90
2020,04,08,04,53,-0.90
2020,04,08,04,54,-0.90
2020,04,08,04,55,-0.90
2020,04,08,04,56,-0.90
2020,04,08,04,57,-0.90
2020,04,08,04,58,-0.90
2020,04,08,04,59,-0.90
2020,04,08,05,00,-0.90
2020,04,08,05,01,-0.90
2020,04,08,05,02,-1.00
2020,04,08,05,03,-1.00
2020,04,08,05,04,-1.00
2020,04,08,05,05,-1.00
2020,04,08,05,06,-1.00
2020,04,08,05,07,-1.00
2020,04,08,05,08,-1.10
2020,04,08,05,09,-1.10
2020,04,08,05,10,-1.10
2020,04,08,05,11,-1.10
2020,04,08,05,12,-1.10
2020,04,08,05,13,-1.10
2020,04,08,05,14,-1.10
2020,04,08,05,15,-1.10
2020,04,08,05,16,-1.10
2020,04,08,05,17,-1.10
2020,04,08,05,18,-1.10
2020,04,08,05,19,-1.10
2020,04,08,05,20,-1.20
2020,04,08,05,21,-1.20
2020,04,08,05,22,-1.20
2020,04,08,05,23,-1.20
2020,04,08,05,24,-1.20
2020,04,08,05,25,-1.20
2020,04,08,05,26,-1.20
2020,04,08,05,27,-1.20
2020,04,08,05,28,-1.20
2020,04,08,05,29,-1.20
2020,04,08,05,30,-1.20
2020,04,08,05,31,-1.20
2020,04,08,05,32,-1.20
2020,04,08,05,33,-1.20
2020,04,08,05,34,-1.20
2020,04,08,05,35,-1.20
2020,04,08,05,36,-1.20
2020,04,08,05,37,-1.20
2020,04,08,05,38,-1.20
2020,04,08,05,39,-1.20
2020,04,08,05,40,-1.20
2020,04,08,05,41,-1.20
2020,04,08,05,42,-1.20
2020,04,08,05,43,-1.20
2020,04,08,05,44,-1.20
2020,04,08,05,45,-1.20
2020,04,08,05,46,-1.20
2020,04,08,05,47,-1.20
2020,04,08,05,48,-1.30
2020,04,08,05,49,-1.30
2020,04,08,05,50,-1.30
2020,04,08,05,51,-1.30
2020,04,08,05,52,-1.30
2020,04,08,05,53,-1.30
2020,04,08,05,54,-1.30
2020,04,08,05,55,-1.30
2020,04,08,05,56,-1.30
2020,04,08,05,57,-1.30
2020,04,08,05,58,-1.30
2020,04,08,05,59,-1.30
2020,04,08,06,00,-1.30
2020,04,08,06,01,-1.30
2020,04,08,06,02,-1.30
2020,04,08,06,03,-1.30
2020,04,08,06,04,-1.30
2020,04,08,06,05,-1.30
2020,04,08,06,06,-1.30
2020,04,08,06,07,-1.30
2020,04,08,06,08,-1.30
2020,04,08,06,09,-1.30
2020,04,08,06,10,-1.40
2020,04,08,06,11,-1.40
2020,04,08,06,12,-1.40
2020,04,08,06,13,-1.40
2020,04,08,06,14,-1.40
2020,04,08,06,15,-1.40
2020,04,08,06,16,-1.40
2020,04,08,06,17,-1.40
2020,04,08,06,18,-1.40
2020,04,08,06,19,-1.40
2020,04,08,06,20,-1.40
2020,04,08,06,21,-1.40
2020,04,08,06,22,-1.40
2020,04,08,06,23,-1.40
2020,04,08,06,24,-1.50
2020,04,08,06,25,-1.50
2020,04,08,06,26,-1.50
2020,04,08,06,27,-1.50
2020,04,08,06,28,-1.50
2020,04,08,06,29,-1.50
2020,04,08,06,30,-1.50
2020,04,08,06,31,-1.50
2020,04,08,06,32,-1.50
2020,04,08,06,33,-1.50
2020,04,08,06,34,-1.50
2020,04,08,06,35,-1.50
2020,04,08,06,36,-1.50
2020,04,08,06,37,-1.60
2020,04,08,06,38,-1.60
2020,04,08,06,39,-1.60
2020,04,08,06,40,-1.60
2020,04,08,06,41,-1.60
2020,04,08,06,42,-1.60
2020,04,08,06,43,-1.60
2020,04,08,06,44,-1.60
2020,04,08,06,45,-1.60
2020,04,08,06,46,-1.60
2020,04,08,06,47,-1.60
2020,04,08,06,48,-1.50
2020,04,08,06,49,-1.50
2020,04,08,06,50,-1.50
2020,04,08,06,51,-1.50
2020,04,08,06,52,-1.50
2020,04,08,06,53,-1.50
2020,04,08,06,54,-1.50
2020,04,08,06,55,-1.50
2020,04,08,06,56,-1.50
2020,04,08,06,57,-1.50
2020,04,08,06,58,-1.50
2020,04,08,06,59,-1.50
2020,04,08,07,00,-1.50
2020,04,08,07,01,-1.50
2020,04,08,07,02,-1.50
2020,04,08,07,03,-1.50
2020,04,08,07,04,-1.50
2020,04,08,07,05,-1.50
2020,04,08,07,06,-1.50
2020,04,08,07,07,-1.50
2020,04,08,07,08,-1.50
2020,04,08,07,09,-1.50
2020,04,08,07,10,-1.50
2020,04,08,07,11,-1.50
2020,04,08,07,12,-1.50
2020,04,08,07,13,-1.50
2020,04,08,07,14,-1.50
2020,04,08,07,15,-1.50
2020,04,08,07,16,-1.50
2020,04,08,07,17,-1.50
2020,04,08,07,18,-1.50
2020,04,08,07,19,-1.50
2020,04,08,07,20,-1.50
2020,04,08,07,21,-1.50
2020,04,08,07,22,-1.50
2020,04,08,07,23,-1.50
2020,04,08,07,24,-1.50
2020,04,08,07,25,-1.50
2020,04,08,07,26,-1.50
2020,04,08,07,27,-1.50
2020,04,08,07,28,-1.50
2020,04,08,07,29,-1.50
2020,04,08,07,30,-1.40
2020,04,08,07,31,-1.40
2020,04,08,07,32,-1.40
2020,04,08,07,33,-1.40
2020,04,08,07,34,-1.40
2020,04,08,07,35,-1.40
2020,04,08,07,36,-1.40
2020,04,08,07,37,-1.40
2020,04,08,07,38,-1.40
2020,04,08,07,39,-1.40
2020,04,08,07,40,-1.40
2020,04,08,07,41,-1.40
2020,04,08,07,42,-1.40
2020,04,08,07,43,-1.40
2020,04,08,07,44,-1.40
2020,04,08,07,45,-1.40
2020,04,08,07,46,-1.40
2020,04,08,07,47,-1.40
2020,04,08,07,48,-1.40
2020,04,08,07,49,-1.40
2020,04,08,07,50,-1.40
2020,04,08,07,51,-1.40
2020,04,08,07,52,-1.40
2020,04,08,07,53,-1.40
2020,04,08,07,54,-1.40
2020,04,08,07,55,-1.40
2020,04,08,07,56,-1.30
2020,04,08,07,57,-1.30
2020,04,08,07,58,-1.30
2020,04,08,07,59,-1.30
2020,04,08,08,00,-1.30
2020,04,08,08,01,-1.30
2020,04,08,08,02,-1.30
2020,04,08,08,03,-1.30
2020,04,08,08,04,-1.30
2020,04,08,08,05,-1.30
2020,04,08,08,06,-1.30
2020,04,08,08,07,-1.30
2020,04,08,08,08,-1.20
2020,04,08,08,09,-1.20
2020,04,08,08,10,-1.20
2020,04,08,08,11,-1.20
2020,04,08,08,12,-1.20
2020,04,08,08,13,-1.10
2020,04,08,08,14,-1.10
2020,04,08,08,15,-1.10
2020,04,08,08,16,-1.00
2020,04,08,08,17,-1.00
2020,04,08,08,18,-0.90
2020,04,08,08,19,-0.80
2020,04,08,08,20,-0.60
2020,04,08,08,21,-0.50
2020,04,08,08,22,-0.40
2020,04,08,08,23,-0.30
2020,04,08,08,24,-0.30
2020,04,08,08,25,-0.20
2020,04,08,08,26,-0.10
2020,04,08,08,27,0.00
2020,04,08,08,28,0.10
2020,04,08,08,29,0.20
2020,04,08,08,30,0.30
2020,04,08,08,31,0.50
2020,04,08,08,32,0.50
2020,04,08,08,33,0.60
2020,04,08,08,34,0.70
2020,04,08,08,35,0.80
2020,04,08,08,36,0.80
2020,04,08,08,37,0.90
2020,04,08,08,38,1.00
2020,04,08,08,39,1.00
2020,04,08,08,40,1.10
2020,04,08,08,41,1.10
2020,04,08,08,42,1.20
2020,04,08,08,43,1.20
2020,04,08,08,44,1.30
2020,04,08,08,45,1.30
2020,04,08,08,46,1.40
2020,04,08,08,47,1.50
2020,04,08,08,48,1.50
2020,04,08,08,49,1.60
2020,04,08,08,50,1.70
2020,04,08,08,51,1.80
2020,04,08,08,52,1.80
2020,04,08,08,53,1.80
2020,04,08,08,54,1.80
2020,04,08,08,55,1.90
2020,04,08,08,56,1.90
2020,04,08,08,57,1.90
2020,04,08,08,58,1.90
2020,04,08,08,59,1.90
2020,04,08,09,00,1.90
2020,04,08,09,01,1.90
2020,04,08,09,02,1.90
2020,04,08,09,03,1.90
2020,04,08,09,04,1.90
2020,04,08,09,05,2.00
2020,04,08,09,06,2.00
2020,04,08,09,07,2.10
2020,04,08,09,08,2.10
2020,04,08,09,09,2.20
2020,04,08,09,10,2.30
2020,04,08,09,11,2.30
2020,04,08,09,12,2.40
2020,04,08,09,13,2.50
2020,04,08,09,14,2.60
2020,04,08,09,15,2.70
2020,04,08,09,16,2.80
2020,04,08,09,17,2.80
2020,04,08,09,18,2.90
2020,04,08,09,19,3.10
2020,04,08,09,20,3.20
2020,04,08,09,21,3.20
2020,04,08,09,22,3.20
2020,04,08,09,23,3.20
2020,04,08,09,24,3.20
2020,04,08,09,25,3.10
2020,04,08,09,26,3.10
2020,04,08,09,27,3.10
2020,04,08,09,28,3.10
2020,04,08,09,29,3.10
2020,04,08,09,30,3.10
2020,04,08,09,31,3.20
2020,04,08,09,32,3.20
2020,04,08,09,33,3.30
2020,04,08,09,34,3.40
2020,04,08,09,35,3.50
2020,04,08,09,36,3.50
2020,04,08,09,37,3.60
2020,04,08,09,38,3.60
2020,04,08,09,39,3.70
2020,04,08,09,40,3.70
2020,04,08,09,41,3.70
2020,04,08,09,42,3.80
2020,04,08,09,43,3.80
2020,04,08,09,44,3.80
2020,04,08,09,45,3.80
2020,04,08,09,46,3.80
2020,04,08,09,47,3.90
2020,04,08,09,48,4.00
2020,04,08,09,49,4.00
2020,04,08,09,50,4.10
2020,04,08,09,51,4.20
2020,04,08,09,52,4.20
2020,04,08,09,53,4.30
2020,04,08,09,54,4.30
2020,04,08,09,55,4.30
2020,04,08,09,56,4.40
2020,04,08,09,57,4.40
2020,04,08,09,58,4.50
2020,04,08,09,59,4.60
2020,04,08,10,00,4.60
2020,04,08,10,01,4.70
2020,04,08,10,02,4.70
2020,04,08,10,03,4.80
2020,04,08,10,04,4.80
2020,04,08,10,05,4.90
2020,04,08,10,06,5.00
2020,04,08,10,07,5.10
2020,04,08,10,08,5.10
2020,04,08,10,09,5.20
2020,04,08,10,10,5.30
2020,04,08,10,11,5.30
2020,04,08,10,12,5.40
2020,04,08,10,13,5.40
2020,04,08,10,14,5.40
2020,04,08,10,15,5.50
2020,04,08,10,16,5.60
2020,04,08,10,17,5.60
2020,04,08,10,18,5.70
2020,04,08,10,19,5.80
2020,04,08,10,20,6.00
2020,04,08,10,21,6.10
2020,04,08,10,22,6.20
2020,04,08,10,23,6.30
2020,04,08,10,24,6.40
2020,04,08,10,25,6.40
2020,04,08,10,26,6.40
2020,04,08,10,27,6.40
2020,04,08,10,28,6.40
2020,04,08,10,29,6.50
2020,04,08,10,30,6.50
2020,04,08,10,31,6.50
2020,04,08,10,32,6.50
2020,04,08,10,33,6.50
2020,04,08,10,34,6.50
2020,04,08,10,35,6.60
2020,04,08,10,36,6.60
2020,04,08,10,37,6.70
2020,04,08,10,38,6.80
2020,04,08,10,39,6.80
2020,04,08,10,40,6.80
2020,04,08,10,41,6.80
2020,04,08,10,42,6.80
2020,04,08,10,43,6.90
2020,04,08,10,44,6.90
2020,04,08,10,45,7.00
2020,04,08,10,46,7.10
2020,04,08,10,47,7.20
2020,04,08,10,48,7.30
2020,04,08,10,49,7.40
2020,04,08,10,50,7.50
2020,04,08,10,51,7.60
2020,04,08,10,52,7.60
2020,04,08,10,53,7.70
2020,04,08,10,54,7.70
2020,04,08,10,55,7.70
2020,04,08,10,56,7.70
2020,04,08,10,57,7.70
2020,04,08,10,58,7.70
2020,04,08,10,59,7.80
2020,04,08,11,00,7.80
2020,04,08,11,01,7.90
2020,04,08,11,02,7.90
2020,04,08,11,03,7.90
2020,04,08,11,04,8.00
2020,04,08,11,05,8.00
2020,04,08,11,06,8.10
2020,04,08,11,07,8.10
2020,04,08,11,08,8.20
2020,04,08,11,09,8.20
2020,04,08,11,10,8.20
2020,04,08,11,11,8.30
2020,04,08,11,12,8.30
2020,04,08,11,13,8.30
2020,04,08,11,14,8.40
2020,04,08,11,15,8.50
2020,04,08,11,16,8.50
2020,04,08,11,17,8.60
2020,04,08,11,18,8.60
2020,04,08,11,19,8.60
2020,04,08,11,20,8.70
2020,04,08,11,21,8.70
2020,04,08,11,22,8.70
2020,04,08,11,23,8.70
2020,04,08,11,24,8.70
2020,04,08,11,25,8.80
2020,04,08,11,26,8.80
2020,04,08,11,27,8.80
2020,04,08,11,28,8.90
2020,04,08,11,29,8.90
2020,04,08,11,30,9.00
2020,04,08,11,31,9.10
2020,04,08,11,32,9.20
2020,04,08,11,33,9.30
2020,04,08,11,34,9.40
2020,04,08,11,35,9.50
2020,04,08,11,36,9.50
2020,04,08,11,37,9.60
2020,04,08,11,38,9.60
2020,04,08,11,39,9.60
2020,04,08,11,40,9.60
2020,04,08,11,41,9.70
2020,04,08,11,42,9.70
2020,04,08,11,43,9.80
2020,04,08,11,44,9.90
2020,04,08,11,45,9.90
2020,04,08,11,46,10.00
2020,04,08,11,47,10.00
2020,04,08,11,48,10.00
2020,04,08,11,49,10.10
2020,04,08,11,50,10.20
2020,04,08,11,51,10.30
2020,04,08,11,52,10.40
2020,04,08,11,53,10.50
2020,04,08,11,54,10.60
2020,04,08,11,55,10.70
2020,04,08,11,56,10.80
2020,04,08,11,57,10.90
2020,04,08,11,58,11.10
2020,04,08,11,59,11.20
2020,04,08,12,00,11.40
2020,04,08,12,01,11.50
2020,04,08,12,02,11.60
2020,04,08,12,03,11.60
2020,04,08,12,04,11.70
2020,04,08,12,05,11.70
2020,04,08,12,06,11.80
2020,04,08,12,07,11.90
2020,04,08,12,08,11.90
2020,04,08,12,09,11.90
2020,04,08,12,10,11.90
2020,04,08,12,11,12.00
2020,04,08,12,12,12.00
2020,04,08,12,13,12.10
2020,04,08,12,14,12.10
2020,04,08,12,15,12.10
2020,04,08,12,16,12.20
2020,04,08,12,17,12.20
2020,04,08,12,18,12.20
2020,04,08,12,19,12.30
2020,04,08,12,20,12.30
2020,04,08,12,21,12.30
2020,04,08,12,22,12.30
2020,04,08,12,23,12.30
2020,04,08,12,24,12.30
2020,04,08,12,25,12.30
2020,04,08,12,26,12.40
2020,04,08,12,27,12.40
2020,04,08,12,28,12.50
2020,04,08,12,29,12.50
2020,04,08,12,30,12.60
2020,04,08,12,31,12.60
2020,04,08,12,32,12.70
2020,04,08,12,33,12.70
2020,04,08,12,34,12.80
2020,04,08,12,35,12.80
2020,04,08,12,36,12.90
2020,04,08,12,37,12.90
2020,04,08,12,38,12.90
2020,04,08,12,39,13.00
2020,04,08,12,40,13.00
2020,04,08,12,41,13.10
2020,04,08,12,42,13.20
2020,04,08,12,43,13.20
2020,04,08,12,44,13.20
2020,04,08,12,45,13.30
2020,04,08,12,46,13.30
2020,04,08,12,47,13.40
2020,04,08,12,48,13.50
2020,04,08,12,49,13.60
2020,04,08,12,50,13.60
2020,04,08,12,51,13.70
2020,04,08,12,52,13.90
2020,04,08,12,53,14.00
2020,04,08,12,54,14.10
2020,04,08,12,55,14.30
2020,04,08,12,56,14.30
2020,04,08,12,57,14.40
2020,04,08,12,58,14.50
2020,04,08,12,59,14.70
2020,04,08,13,00,14.80
2020,04,08,13,01,15.00
2020,04,08,13,02,15.00
2020,04,08,13,03,15.00
2020,04,08,13,04,14.90
2020,04,08,13,05,14.90
2020,04,08,13,06,14.90
2020,04,08,13,07,14.90
2020,04,08,13,08,14.90
2020,04,08,13,09,14.90
2020,04,08,13,10,14.90
2020,04,08,13,11,14.90
2020,04,08,13,12,14.90
2020,04,08,13,13,14.90
2020,04,08,13,14,15.00
2020,04,08,13,15,15.00
2020,04,08,13,16,15.10
2020,04,08,13,17,15.20
2020,04,08,13,18,15.30
2020,04,08,13,19,15.20
2020,04,08,13,20,15.20
2020,04,08,13,21,15.20
2020,04,08,13,22,15.20
2020,04,08,13,23,15.30
2020,04,08,13,24,15.40
2020,04,08,13,25,15.40
2020,04,08,13,26,15.40
2020,04,08,13,27,15.50
2020,04,08,13,28,15.50
2020,04,08,13,29,15.60
2020,04,08,13,30,15.70
2020,04,08,13,31,15.90
2020,04,08,13,32,16.00
2020,04,08,13,33,16.10
2020,04,08,13,34,16.20
2020,04,08,13,35,16.30
2020,04,08,13,36,16.30
2020,04,08,13,37,16.30
2020,04,08,13,38,16.30
2020,04,08,13,39,16.30
2020,04,08,13,40,16.40
2020,04,08,13,41,16.40
2020,04,08,13,42,16.30
2020,04,08,13,43,16.30
2020,04,08,13,44,16.30
2020,04,08,13,45,16.30
2020,04,08,13,46,16.30
2020,04,08,13,47,16.30
2020,04,08,13,48,16.40
2020,04,08,13,49,16.40
2020,04,08,13,50,16.50
2020,04,08,13,51,16.50
2020,04,08,13,52,16.60
2020,04,08,13,53,16.60
2020,04,08,13,54,16.60
2020,04,08,13,55,16.70
2020,04,08,13,56,16.70
2020,04,08,13,57,16.80
2020,04,08,13,58,16.80
2020,04,08,13,59,16.80
2020,04,08,14,00,16.80
2020,04,08,14,01,16.70
2020,04,08,14,02,16.70
2020,04,08,14,03,16.70
2020,04,08,14,04,16.60
2020,04,08,14,05,16.60
2020,04,08,14,06,16.60
2020,04,08,14,07,16.60
2020,04,08,14,08,16.60
2020,04,08,14,09,16.70
2020,04,08,14,10,16.70
2020,04,08,14,11,16.70
2020,04,08,14,12,16.70
2020,04,08,14,13,16.80
2020,04,08,14,14,16.80
2020,04,08,14,15,16.80
2020,04,08,14,16,16.80
2020,04,08,14,17,16.90
2020,04,08,14,18,17.10
2020,04,08,14,19,17.30
2020,04,08,14,20,17.40
2020,04,08,14,21,17.50
2020,04,08,14,22,17.60
2020,04,08,14,23,17.70
2020,04,08,14,24,17.80
2020,04,08,14,25,17.80
2020,04,08,14,26,17.80
2020,04,08,14,27,17.70
2020,04,08,14,28,17.60
2020,04,08,14,29,17.60
2020,04,08,14,30,17.70
2020,04,08,14,31,17.70
2020,04,08,14,32,17.60
2020,04,08,14,33,17.50
2020,04,08,14,34,17.40
2020,04,08,14,35,17.40
2020,04,08,14,36,17.50
2020,04,08,14,37,17.50
2020,04,08,14,38,17.60
2020,04,08,14,39,17.70
2020,04,08,14,40,17.70
2020,04,08,14,41,17.80
2020,04,08,14,42,17.80
2020,04,08,14,43,17.80
2020,04,08,14,44,17.80
2020,04,08,14,45,17.80
2020,04,08,14,46,17.80
2020,04,08,14,47,18.00
2020,04,08,14,48,18.00
2020,04,08,14,49,18.10
2020,04,08,14,50,18.10
2020,04,08,14,51,18.00
2020,04,08,14,52,17.90
2020,04,08,14,53,17.80
2020,04,08,14,54,17.70
2020,04,08,14,55,17.70
2020,04,08,14,56,17.70
2020,04,08,14,57,17.70
2020,04,08,14,58,17.70
2020,04,08,14,59,17.80
2020,04,08,15,00,17.80
2020,04,08,15,01,17.90
2020,04,08,15,02,17.90
2020,04,08,15,03,18.00
2020,04,08,15,04,18.00
2020,04,08,15,05,18.10
2020,04,08,15,06,18.10
2020,04,08,15,07,18.10
2020,04,08,15,08,18.10
2020,04,08,15,09,18.20
2020,04,08,15,10,18.20
2020,04,08,15,11,18.20
2020,04,08,15,12,18.10
2020,04,08,15,13,18.10
2020,04,08,15,14,18.00
2020,04,08,15,15,18.00
2020,04,08,15,16,17.90
2020,04,08,15,17,17.90
2020,04,08,15,18,17.90
2020,04,08,15,19,17.90
2020,04,08,15,20,17.80
2020,04,08,15,21,17.80
2020,04,08,15,22,17.80
2020,04,08,15,23,17.80
2020,04,08,15,24,17.80
2020,04,08,15,25,17.90
2020,04,08,15,26,17.90
2020,04,08,15,27,17.90
2020,04,08,15,28,17.90
2020,04,08,15,29,17.80
2020,04,08,15,30,17.80
2020,04,08,15,31,17.80
2020,04,08,15,32,17.90
2020,04,08,15,33,18.00
2020,04,08,15,34,18.00
2020,04,08,15,35,18.10
2020,04,08,15,36,18.20
2020,04,08,15,37,18.20
2020,04,08,15,38,18.20
2020,04,08,15,39,18.10
2020,04,08,15,40,18.10
2020,04,08,15,41,18.00
2020,04,08,15,42,18.00
2020,04,08,15,43,17.90
2020,04,08,15,44,17.90
2020,04,08,15,45,17.90
2020,04,08,15,46,17.90
2020,04,08,15,47,18.00
2020,04,08,15,48,18.10
2020,04,08,15,49,18.20
2020,04,08,15,50,18.20
2020,04,08,15,51,18.10
2020,04,08,15,52,18.10
2020,04,08,15,53,18.10
2020,04,08,15,54,18.00
2020,04,08,15,55,18.00
2020,04,08,15,56,18.00
2020,04,08,15,57,17.90
2020,04,08,15,58,17.90
2020,04,08,15,59,17.90
2020,04,08,16,00,17.90
2020,04,08,16,01,17.90
2020,04,08,16,02,17.90
2020,04,08,16,03,17.90
2020,04,08,16,04,17.90
2020,04,08,16,05,17.90
2020,04,08,16,06,17.90
2020,04,08,16,07,17.90
2020,04,08,16,08,17.80
2020,04,08,16,09,17.80
2020,04,08,16,10,17.80
2020,04,08,16,11,17.90
2020,04,08,16,12,17.90
2020,04,08,16,13,17.90
2020,04,08,16,14,17.90
2020,04,08,16,15,17.90
2020,04,08,16,16,17.80
2020,04,08,16,17,17.80
2020,04,08,16,18,17.70
2020,04,08,16,19,17.60
2020,04,08,16,20,17.60
2020,04,08,16,21,17.60
2020,04,08,16,22,17.60
2020,04,08,16,23,17.60
2020,04,08,16,24,17.70
2020,04,08,16,25,17.60
2020,04,08,16,26,17.60
2020,04,08,16,27,17.70
2020,04,08,16,28,17.70
2020,04,08,16,29,17.70
2020,04,08,16,30,17.70
2020,04,08,16,31,17.70
2020,04,08,16,32,17.60
2020,04,08,16,33,17.60
2020,04,08,16,34,17.60
2020,04,08,16,35,17.70
2020,04,08,16,36,17.70
2020,04,08,16,37,17.70
2020,04,08,16,38,17.70
2020,04,08,16,39,17.70
2020,04,08,16,40,17.80
2020,04,08,16,41,17.80
2020,04,08,16,42,17.70
2020,04,08,16,43,17.70
2020,04,08,16,44,17.70
2020,04,08,16,45,17.70
2020,04,08,16,46,17.70
2020,04,08,16,47,17.60
2020,04,08,16,48,17.50
2020,04,08,16,49,17.40
2020,04,08,16,50,17.30
2020,04,08,16,51,17.30
2020,04,08,16,52,17.20
2020,04,08,16,53,17.20
2020,04,08,16,54,17.20
2020,04,08,16,55,17.20
2020,04,08,16,56,17.20
2020,04,08,16,57,17.20
2020,04,08,16,58,17.20
2020,04,08,16,59,17.20
2020,04,08,17,00,17.20
2020,04,08,17,01,17.20
2020,04,08,17,02,17.20
2020,04,08,17,03,17.30
2020,04,08,17,04,17.40
2020,04,08,17,05,17.40
2020,04,08,17,06,17.40
2020,04,08,17,07,17.40
2020,04,08,17,08,17.40
2020,04,08,17,09,17.30
2020,04,08,17,10,17.30
2020,04,08,17,11,17.30
2020,04,08,17,12,17.30
2020,04,08,17,13,17.30
2020,04,08,17,14,17.30
2020,04,08,17,15,17.30
2020,04,08,17,16,17.30
2020,04,08,17,17,17.30
2020,04,08,17,18,17.30
2020,04,08,17,19,17.30
2020,04,08,17,20,17.30
2020,04,08,17,21,17.30
2020,04,08,17,22,17.30
2020,04,08,17,23,17.40
2020,04,08,17,24,17.40
2020,04,08,17,25,17.40
2020,04,08,17,26,17.40
2020,04,08,17,27,17.40
2020,04,08,17,28,17.50
2020,04,08,17,29,17.50
2020,04,08,17,30,17.50
2020,04,08,17,31,17.60
2020,04,08,17,32,17.50
2020,04,08,17,33,17.50
2020,04,08,17,34,17.50
2020,04,08,17,35,17.40
2020,04,08,17,36,17.30